Location: Palomar Mountain Lodge
(33.3110°N, 116.8495°W)
Time: 08:25:09
(UTC-07:00)

Cosmos 1939 Rocket - Pass Details

Date: 19 May 2017
Orbit: 534 x 586 km, 97.5° (Epoch: 21 May)

Event Time Altitude Azimuth Distance (km) Brightness Sun altitude
Exits shadow 20:49:00 17° 149° (SSE) 1,390 4.3 -12.7°
Maximum altitude 20:51:46 54° 76° (ENE) 654 2.9 -13.2°
Drops below altitude 10° 20:55:33 10° 358° (N) 1,790 5.9 -13.8°
Sets 20:57:41 0° 354° (N) 2,683 7.0 -14.2°
